Flag for Ecuador Weather past 2 weeks in Quito, Ecuador

Now
52 °F

Broken clouds.


Feels Like: 49 °F
Forecast: 49 / 71 °F
Wind: 9 mph from Southwest

Location: Latacunga Airport

Current Time: Jul 25, 2014 at 7:56:59 AM

Latest Report: Jul 25, 2014 at 7:00 AM


Visibility: N/A

Pressure: 30.42 "Hg

Humidity: 94%

Dew point: 50 °F

Location of QuitoLocation

Historic Weather in Quito — Graph

°F

Quito temperature yesterday

Maximum temperature yesterday: 66 °F (at 1:00 PM)
Minimum temperature yesterday: 50 °F (at 4:00 AM)
Average temperature yesterday: 56 °F

Past Weeks' High & Low Weather Summary

 TemperatureHumidityPressure
High68 °F (Jul 12, 12:00 PM)100% (Jul 10, 7:00 AM)30.54 "Hg (Jul 10, 7:00 AM)
Low41 °F (Jul 22, 6:00 AM)40% (Jul 22, 12:00 PM)30.30 "Hg (Jul 11, 4:00 PM)
Average54 °F82%30.43 "Hg
* Reported Jul 10 7:00 AM — Jul 25 7:00 AM, Quito, Weather by CustomWeather, © 2014

Note: Actual official high and low records may vary slightly from our data, if they occured in-between our weather recording intervals... More about our weather records

Advertising

Quito weather history for previous 24 hours

 ConditionsComfort  
Time TempWeatherWind HumidityBarometerVisibility
7:00 AM
Jul 25
52 °FBroken clouds.9 mph94%30.42 "HgN/A
6:00 AM52 °FPartly cloudy.15 mph94%30.39 "HgN/A
4:00 AM52 °FPassing clouds.15 mph94%30.36 "HgN/A
2:00 AM52 °FPartly cloudy.12 mph94%30.39 "HgN/A
1:00 AM52 °FPassing clouds.14 mph94%30.42 "HgN/A
12:00 AM52 °FPassing clouds.13 mph100%30.42 "HgN/A
11:00 PM
Jul 24
52 °FPassing clouds.12 mph100%30.42 "HgN/A
10:00 PM52 °FPassing clouds.9 mph100%30.42 "HgN/A
9:00 PM54 °FPartly cloudy.13 mph88%30.42 "HgN/A
8:00 PM54 °FPartly cloudy.17 mph88%30.39 "HgN/A
7:00 PM57 °FPassing clouds.17 mph77%30.36 "HgN/A
6:00 PM59 °FBroken clouds.16 mph72%30.33 "HgN/A
5:00 PM63 °FPartly sunny.20 mph59%30.30 "HgN/A
4:00 PM64 °FPartly sunny.18 mph56%30.30 "HgN/A
3:00 PM64 °FPartly sunny.22 mph56%30.33 "HgN/A
2:00 PM66 °FPartly sunny.22 mph56%30.36 "HgN/A
1:00 PM66 °FBroken clouds.22 mph60%30.39 "HgN/A
12:00 PM64 °FScattered showers. Broken clouds.18 mph60%30.42 "HgN/A
11:00 AM59 °FPartly sunny.16 mph72%30.42 "HgN/A
10:00 AM59 °FPartly sunny.18 mph72%30.45 "HgN/A
9:00 AM54 °FPartly sunny.20 mph88%30.45 "HgN/A
8:00 AM54 °FPartly sunny.13 mph94%30.45 "HgN/A
7:00 AM50 °FPartly sunny.10 mph100%30.42 "HgN/A
Weather by CustomWeather, © 2014

See weather overviewHow to use our weather pages